Theta_e
314 317 318 318 318 317 314 315 316 318 311 313 315 314 314 314 313 312 312 312 311 307 307 307 307 305 303 300 299 298 298 297 295 295 294 295 295 296 297 297 296 294 293 292
315 316 317 315 313 314 315 317 318 317 309 310 313 312 312 312 312 312 312 313 312 308 305 304 304 304 303 301 299 298 297 296 295 295 294 294 295 295 296 296 295 294 293 292
315 316 310 313 314 314 315 317 318 315 311 308 308 312 312 311 309 310 311 311 311 309 307 304 304 305 303 301 300 298 297 296 295 294 294 294 294 295 295 295 294 293 292 291
314 313 313 313 315 314 317 314 313 312 312 317 309 316 315 314 312 311 312 313 310 310 309 306 306 306 305 303 300 298 297 296 295 294 293 293 294 294 294 294 293 292 291 290
315 311 311 314 315 313 316 307 309 309 311 309 314 312 314 307 310 312 313 313 311 309 309 310 310 308 306 304 302 299 296 295 294 293 293 292 293 293 293 293 292 291 290 289
313 306 309 313 305 307 305 308 308 306 309 314 315 314 314 312 312 312 312 312 311 310 310 309 308 306 304 302 301 299 296 295 294 293 292 291 292 291 291 290 289 289 289 289
313 311 307 306 310 306 308 313 317 320 318 318 309 309 312 311 311 311 314 314 309 309 308 308 308 307 305 304 303 299 296 295 293 292 291 291 291 290 290 288 289 289 288 288
316 315 309 308 313 316 310 314 320 321 317 317 307 310 313 311 311 311 308 309 308 307 307 307 307 306 306 305 303 300 297 294 293 292 290 290 290 290 289 289 289 288 288 288
314 315 304 303 304 308 309 312 311 316 305 312 314 315 312 309 309 308 306 306 307 307 308 308 307 306 306 307 306 302 298 295 293 291 290 290 290 290 289 289 288 288 287 287
313 315 307 301 302 301 306 306 311 313 319 318 316 316 316 312 310 309 308 308 310 308 309 308 308 307 307 307 305 301 299 296 293 291 290 289 289 289 289 288 287 287 287 287
311 314 311 303 305 311 304 308 306 307 310 316 316 315 311 311 310 310 310 310 310 309 309 308 309 309 308 305 304 302 298 294 292 290 289 289 289 289 288 287 287 287 287 287
310 313 317 314 302 300 305 309 310 313 313 311 313 314 309 310 310 309 308 308 309 310 310 308 309 308 307 306 304 300 295 292 292 290 289 289 289 288 287 287 287 287 287 286
308 312 317 316 304 300 305 304 307 309 310 313 315 313 311 311 310 310 308 308 308 309 308 308 308 307 307 304 302 298 294 291 291 289 289 289 289 288 287 287 287 287 286 286
309 312 314 313 312 308 308 305 305 309 312 313 312 312 312 312 311 310 310 307 307 308 307 307 307 307 305 303 300 296 292 290 290 289 289 288 288 287 287 287 287 287 286 285
309 312 312 313 313 311 311 310 309 307 308 310 311 311 311 311 311 311 310 309 309 308 305 306 306 306 303 301 298 294 291 290 289 289 288 288 287 287 286 286 286 286 285 284
306 311 310 310 310 310 311 311 311 311 311 311 309 308 309 309 309 309 309 308 308 307 307 306 305 305 304 302 299 293 291 289 289 288 288 287 286 286 286 286 286 285 284 283
306 308 310 313 312 311 311 311 310 311 310 310 311 311 311 311 310 309 309 309 308 307 307 306 306 306 305 303 299 294 292 289 288 287 287 286 286 286 286 286 285 284 283 282
308 308 309 311 311 311 311 309 309 310 310 310 310 310 310 310 309 308 308 308 308 308 307 307 306 305 304 301 296 292 290 288 287 287 286 286 286 286 286 285 284 283 282 281
309 309 309 310 312 311 308 309 308 309 309 309 309 309 309 308 308 308 308 308 307 307 307 306 305 303 302 299 295 291 288 287 287 286 286 286 286 286 285 283 283 282 281 280
308 308 309 310 311 313 311 309 308 307 308 309 308 308 308 307 309 310 309 308 308 307 307 305 303 301 297 295 293 289 287 287 287 286 286 286 286 284 283 283 282 280 279 279
308 309 309 310 312 312 310 308 305 310 311 310 308 308 308 307 308 309 307 306 307 305 305 305 301 299 298 294 290 287 287 286 286 285 286 286 284 283 282 282 281 280 279 278
311 311 310 309 310 312 309 309 309 311 311 311 311 308 307 309 308 308 309 306 302 303 303 301 298 296 293 291 288 287 286 286 285 286 286 285 284 282 282 281 280 279 278 277
312 312 312 311 312 310 310 310 309 309 310 310 310 309 308 307 308 309 310 309 309 305 301 298 297 293 290 286 286 286 285 285 285 285 285 284 282 281 281 280 279 278 277 276
311 310 311 311 311 310 309 309 309 309 309 309 308 308 306 306 307 307 307 307 308 305 301 296 293 292 288 285 284 285 285 285 285 284 284 282 281 280 279 278 277 277 276 275
303 304 306 306 305 308 309 309 307 307 307 307 308 307 307 306 306 305 306 305 305 303 299 294 290 288 286 284 283 284 285 285 285 284 282 280 279 278 278 277 276 276 275 273
301 303 304 305 305 307 307 308 308 308 308 308 307 307 307 307 307 306 306 305 303 302 297 291 286 285 285 283 283 284 284 285 284 284 281 279 278 277 277 276 275 274 273 273
Wind_Speed
2 7 16 17 17 13 7 8 17 14 4 5 18 22 25 28 26 33 36 32 31 32 29 31 37 40 42 42 40 38 36 33 29 26 23 21 19 17 14 12 12 14 17 20
4 16 19 6 6 9 10 13 22 14 3 8 15 22 22 23 30 34 36 36 30 26 23 27 34 40 44 44 43 41 39 35 31 28 26 24 22 19 15 13 13 15 18 21
17 9 3 9 10 10 12 18 17 11 4 8 10 16 10 8 19 27 36 35 27 25 24 26 31 36 42 47 47 45 41 38 34 31 29 27 25 21 17 15 16 17 19 21
10 6 11 9 11 14 14 8 12 8 5 12 3 18 13 14 14 12 32 23 21 25 24 23 26 31 38 45 47 46 42 40 36 34 32 30 26 22 19 17 18 19 19 20
6 5 7 11 9 12 6 2 4 3 8 6 12 10 9 2 6 17 16 25 20 20 22 22 24 26 28 35 44 46 45 42 39 36 33 30 27 23 21 19 19 19 19 20
7 1 4 3 3 1 8 3 1 2 4 10 18 18 5 5 7 8 16 22 18 15 17 18 20 20 24 27 36 44 47 45 42 39 35 32 27 24 21 20 18 19 20 21
4 9 3 4 4 3 4 3 5 6 6 15 2 8 15 14 12 14 18 23 8 12 16 16 19 22 23 24 29 40 48 47 45 41 37 32 27 24 21 19 19 20 22 22
5 11 12 9 12 4 11 6 6 14 15 25 5 11 11 11 20 30 18 22 21 15 17 18 19 20 21 22 25 34 47 50 48 44 38 33 28 24 22 20 21 20 21 22
9 10 2 1 2 3 8 8 2 6 2 9 13 21 7 9 13 9 19 17 23 24 20 20 20 22 22 21 26 32 42 52 50 45 39 34 29 24 21 21 21 20 21 23
2 8 4 3 2 1 3 3 4 3 7 19 27 30 19 12 15 12 11 17 23 20 22 25 23 23 21 22 25 29 37 50 50 45 40 35 29 24 23 21 20 20 21 24
5 9 5 5 12 16 5 6 5 2 4 10 20 12 4 5 4 8 13 21 16 19 20 28 23 23 24 24 28 33 38 47 51 46 41 34 29 25 22 20 20 20 22 25
9 3 12 19 1 3 2 10 15 8 8 11 11 28 3 3 5 4 4 10 13 15 22 23 23 27 30 29 31 36 39 47 51 46 40 33 28 23 21 20 20 21 23 26
9 4 5 11 4 1 7 6 10 13 14 32 11 29 13 14 15 16 16 20 22 29 31 26 29 31 36 35 34 37 40 48 50 45 38 32 26 22 20 19 19 21 24 28
17 7 14 21 18 3 6 10 16 22 18 21 24 35 39 33 31 25 30 26 31 39 38 36 41 41 39 36 36 39 41 49 48 43 36 29 25 21 19 18 19 21 25 28
6 11 14 23 25 21 23 21 21 25 27 25 35 28 34 35 33 28 34 32 43 39 31 40 43 44 39 35 38 41 44 49 46 40 33 28 22 19 18 17 19 21 24 27
7 20 24 30 34 32 29 22 31 31 38 33 29 32 35 39 53 42 52 44 43 43 44 44 45 42 39 39 41 43 45 49 44 38 31 25 20 18 16 17 18 20 23 25
9 11 14 21 25 19 15 36 34 41 34 32 32 37 35 34 31 31 47 38 37 45 45 39 44 42 39 40 41 43 46 50 43 35 29 23 19 17 16 16 17 19 21 23
14 16 12 10 7 16 21 23 32 39 37 32 30 34 36 35 47 44 45 34 43 45 47 42 42 37 36 36 38 41 46 48 40 33 27 22 19 16 15 14 15 17 20 23
25 20 9 8 15 11 2 15 25 22 30 26 32 35 36 50 24 41 36 37 43 45 43 39 37 29 34 36 39 41 48 45 38 32 27 22 18 15 13 12 13 17 18 21
26 24 17 8 9 15 16 28 33 8 9 30 26 28 29 25 14 21 41 25 27 26 28 28 26 24 29 35 36 40 50 44 38 32 26 20 15 12 11 10 13 16 19 21
7 11 22 22 20 12 12 11 7 13 19 29 35 30 22 17 24 38 26 21 22 20 20 18 19 25 29 34 38 47 45 39 34 29 23 18 13 10 8 9 13 16 19 20
18 11 10 14 16 23 18 22 24 28 41 36 32 23 19 27 32 29 25 30 27 24 21 21 24 30 32 37 44 49 45 39 33 28 22 16 11 8 6 8 12 15 17 20
21 23 22 22 17 17 25 28 54 55 44 40 32 29 29 30 34 36 33 33 33 34 28 28 29 32 35 43 48 47 42 36 31 26 20 15 10 7 5 8 10 13 16 20
20 20 21 26 25 20 21 31 36 40 40 43 42 28 24 28 32 34 35 35 38 35 34 33 35 35 42 48 46 42 39 34 26 21 17 13 10 6 4 7 9 10 14 17
10 12 8 9 15 23 34 30 25 30 35 40 47 44 42 35 38 39 41 43 43 38 35 36 38 41 51 53 48 42 37 33 27 20 15 13 9 6 3 6 7 9 11 13
19 22 18 20 22 17 23 36 33 32 34 39 39 41 47 47 51 46 48 49 47 43 40 41 41 49 56 53 48 43 37 32 26 21 18 14 10 7 4 2 6 8 9 11
Wind_Direction
164 223 234 241 227 269 269 260 266 267 195 235 251 256 271 281 275 264 269 262 253 247 253 239 233 230 227 225 224 223 225 225 225 226 227 229 233 238 250 268 291 301 305 306
185 238 252 243 231 230 237 259 264 283 199 213 273 269 272 266 266 267 268 268 260 253 241 232 229 228 229 230 227 225 226 226 227 229 231 232 233 238 250 268 286 294 299 302
230 245 80 199 218 211 234 238 258 260 313 226 283 271 245 259 253 272 267 260 257 246 239 230 227 229 230 229 230 228 227 227 228 229 231 232 234 241 253 268 282 290 298 306
242 259 229 213 234 203 243 234 248 268 285 275 2 289 277 272 264 249 269 264 250 249 239 233 232 229 230 233 232 231 228 227 228 230 231 233 235 241 252 264 278 290 301 307
221 182 198 216 236 179 244 111 181 201 250 304 252 269 274 134 251 259 263 266 252 243 236 231 235 236 235 233 234 231 228 228 229 232 233 233 237 243 253 265 277 289 299 302
259 168 214 213 84 182 135 119 161 162 251 255 257 232 260 190 212 244 259 266 252 226 220 221 230 231 229 230 234 231 228 227 229 231 232 234 239 246 256 270 283 294 302 307
206 221 174 180 151 135 193 180 285 256 238 267 131 255 263 277 237 236 250 265 253 224 212 221 231 226 222 226 235 230 227 227 228 229 231 234 240 248 258 269 282 295 300 306
223 257 185 177 222 218 186 215 204 274 282 289 109 251 276 229 245 250 262 257 261 239 242 243 237 230 227 232 240 235 227 226 228 228 230 234 240 249 260 273 285 292 298 303
194 249 108 296 102 184 157 197 318 283 100 286 256 258 229 203 238 243 252 260 256 249 254 243 237 232 227 237 246 240 230 227 228 228 229 233 241 250 263 273 283 292 297 301
231 276 146 115 139 77 217 118 136 198 271 270 280 290 284 234 239 234 247 242 256 252 242 240 237 237 234 244 247 240 235 230 227 226 228 232 241 251 261 272 283 289 295 303
165 204 209 150 201 207 177 201 203 272 226 266 281 271 148 161 152 203 224 239 253 264 260 239 234 235 239 246 246 239 232 224 224 224 225 230 240 251 262 272 280 288 298 303
205 192 235 240 95 336 314 233 207 225 224 236 267 273 114 249 210 232 247 269 273 276 262 225 233 241 241 248 243 236 227 221 221 222 223 229 239 250 261 272 282 292 297 300
173 210 242 259 222 217 208 198 230 237 257 249 223 260 210 277 275 277 260 268 276 279 258 243 245 248 248 247 240 231 224 219 218 218 221 228 237 248 260 272 282 290 299 304
171 174 223 242 245 132 184 212 224 223 236 255 239 256 275 275 271 281 281 277 270 262 261 256 258 256 255 246 239 229 222 218 215 215 219 226 236 247 258 268 280 294 302 304
153 236 237 247 263 265 271 270 251 236 242 247 259 265 266 275 280 278 282 285 278 274 264 265 262 258 253 242 237 229 223 214 213 212 216 224 234 245 257 272 288 297 304 309
197 237 235 255 263 266 259 251 255 260 259 255 254 266 265 269 275 283 277 271 273 274 266 261 261 261 253 243 235 226 220 211 209 210 214 222 230 242 258 275 289 300 307 311
209 221 221 240 234 248 258 243 246 252 255 255 263 255 263 266 264 262 270 282 276 267 267 263 260 262 256 244 233 224 216 208 204 206 211 218 227 240 257 276 290 303 309 313
227 228 229 251 237 229 233 235 235 244 251 256 256 260 265 264 264 272 274 272 270 270 271 269 266 261 248 235 226 219 210 202 199 202 207 214 223 238 257 277 295 309 311 315
222 225 231 227 224 252 227 230 223 233 249 252 252 262 259 263 293 280 282 267 264 273 274 270 274 262 235 223 217 211 197 195 195 198 203 208 219 238 259 280 302 308 313 315
224 222 220 205 229 234 229 238 240 231 255 255 243 246 256 275 281 278 291 270 271 275 273 273 260 239 224 215 211 201 192 190 192 194 198 205 218 238 260 287 306 311 317 321
183 206 221 230 242 243 219 223 111 202 242 243 247 251 251 242 236 252 275 272 273 271 266 258 241 227 218 211 201 192 189 189 190 191 194 202 215 238 267 297 311 317 320 321
214 195 208 228 240 244 222 221 216 236 248 247 255 251 227 243 247 250 267 280 290 276 260 239 225 215 210 203 193 188 187 187 186 186 192 199 213 230 263 302 310 316 320 320
237 229 237 220 231 224 217 220 227 235 250 257 255 259 248 245 253 254 264 253 254 260 244 230 221 213 201 195 190 185 184 183 184 185 189 194 200 225 268 296 309 317 323 321
248 254 252 257 253 243 241 239 242 241 241 251 258 268 265 251 262 264 261 248 250 249 242 225 215 203 196 188 186 188 181 179 182 186 188 188 195 209 256 291 306 325 321 332
279 312 299 300 296 306 293 280 270 268 266 266 266 269 267 264 270 267 266 259 252 244 235 223 213 203 191 186 183 183 182 178 181 183 187 190 187 198 242 285 317 324 331 346
272 276 273 268 276 274 281 287 288 289 273 268 272 275 277 279 278 270 265 264 255 239 229 217 208 199 190 184 180 179 180 181 181 180 187 187 188 191 200 283 317 330 347 351